Regional Weather Roundup
Issued by NWS

Home | Current Version | Previous Version | Graphics & Text | Print | Product List | Glossary On
Versions: 1 2 3 4 5 6 7 8 9 10 11 12 13 14 15 16 17 18 19 20 21 22 23 24 25 26 27 28 29 30 31 32 33 34 35 36 37 38 39 40 41 42 43 44 45 46 47 48 49 50
000
ASUS43 KMKX 240300
RWRWI

WISCONSIN REGIONAL WEATHER ROUNDUP
NATIONAL WEATHER SERVICE MILWAUKEE/SULLIVAN WI
1000 PM CDT FRI JUN 23 2017

NOTE: "FAIR" INDICATES FEW OR NO CLOUDS BELOW 12,000 FEET WITH NO
SIGNIFICANT WEATHER AND/OR OBSTRUCTIONS TO VISIBILITY.

WIZ001-002-006>008-014>016-023>028-240400-
NORTHWEST WISCONSIN

CITY           SKY/WX    TMP DP  RH WIND       PRES   REMARKS
SUPERIOR ARPT  NOT AVBL
ASHLAND        PTCLDY    60  50  69 W8        29.80R
HAYWARD        MOCLDY    58  53  84 VRB3      29.84R
SIREN          MOCLDY    59  53  82 CALM      29.88R
CUMBERLAND     CLOUDY    59  50  72 NW10G18   29.86R
RICE LAKE      CLOUDY    61  52  71 W9        29.86R
CHETEK         MOCLDY    61  53  75 W9        29.85R
LADYSMITH      CLOUDY    61  52  72 NW7       29.84R
EAU CLAIRE     NOT AVBL
MENOMONIE      LGT RAIN  61  54  76 W15G26    29.88R
NEW RICHMOND   CLOUDY    58  54  88 W3        29.89R
OSCEOLA        RAIN      60  60 100 W5        29.91R
$$

WIZ003>005-009-010-017-018-240400-
NORTH CENTRAL WISCONSIN

CITY           SKY/WX    TMP DP  RH WIND       PRES   REMARKS
MANITOWISH WTR CLOUDY    55  55  97 CALM      29.78R
ARBOR VITAE    MOCLDY    61  51  70 CALM      29.78R
WOODRUFF       MOCLDY    61  51  70 CALM      29.78R
RHINELANDER    PTCLDY    50  50 100 W5        29.79R
EAGLE RIVER    CLEAR     55  48  79 CALM      29.77R
LAND O LAKES   CLEAR     53  48  83 CALM      29.79R
PHILLIPS       CLOUDY    58  54  85 CALM      29.80R
TOMAHAWK       NOT AVBL
MEDFORD        CLEAR     59  50  70 W6        29.81R
MERRILL        CLEAR     58  53  82 W6        29.80R
$$

WIZ029-030-035-036-043>047-240400-
CENTRAL WISCONSIN

CITY           SKY/WX    TMP DP  RH WIND       PRES   REMARKS
WAUSAU         MOCLDY    59  53  80 W6        29.78R
MOSINEE        MOCLDY    57  55  94 CALM      29.81R
MARSHFIELD     MOCLDY    62  51  67 W9        29.81R
STEVENS POINT  CLOUDY    63  50  63 NW6       29.81R
WAUPACA        PTCLDY    64  53  68 W5        29.79R
WAUTOMA        CLEAR     62  54  74 W7        29.82R
WISC RAPIDS    CLEAR     61  52  72 W7        29.83R
CAMP DOUGLAS   NOT AVBL
$$

WIZ011>013-019>022-031-037>040-048>050-240400-
NORTHEAST WISCONSIN

CITY           SKY/WX    TMP DP  RH WIND       PRES   REMARKS
ANTIGO         PTCLDY    57  51  79 W6        29.78S
SHAWANO        PTCLDY    65  52  62 W5        29.75R
OCONTO         CLEAR     62  51  67 W3        29.73R
STURGEON BAY     N/A     66  53  63 W8          N/A
GREEN BAY      CLEAR     63  55  75 W7        29.75R
MANITOWOC      NOT AVBL
APPLETON       PTCLDY    63  52  67 W7        29.76R
CLINTONVILLE   CLEAR     63  50  63 W7        29.77R
OSHKOSH        CLEAR     64  53  67 W5        29.78R
$$

WIZ032>034-041-042-053>061-240400-
SOUTHWEST WISCONSIN

CITY           SKY/WX    TMP DP  RH WIND       PRES   REMARKS
LA CROSSE      CLOUDY    69  56  62 NW14      29.86R
SPARTA         PTCLDY    62  54  75 W6        29.85R
VIROQUA        MOCLDY    63  57  81 W7        29.87R
BOSCOBEL       CLEAR     67  55  65 W10       29.87R
PRAIRIE DU CHI CLEAR     65  53  64 W9        29.87R
PLATTEVILLE    CLEAR     64  58  81 W8        29.87R
$$

WIZ056-057-062-063-064-067-068-240400-
SOUTH CENTRAL WISCONSIN

CITY           SKY/WX    TMP DP  RH WIND       PRES   REMARKS
REEDSBURG      PTCLDY    63  55  74 W3        29.84R
BARABOO/DELLS  PTCLDY    61  53  74 W3        29.84R
LONE ROCK      NOT AVBL
MINERAL POINT  CLEAR     64  55  72 W8        29.87R
MADISON        PTCLDY    64  54  69 VRB5      29.83R
MIDDLETON      CLEAR     62  55  77 W7        29.84R
WATERTOWN      CLEAR     64  55  74 W3        29.81R
MONROE         CLEAR     64  52  63 W8        29.85R
JANESVILLE     CLEAR     66  54  63 W8        29.83R
$$

WIZ051-052-058>065-066-070>072-240400-
SOUTHEAST WISCONSIN

CITY           SKY/WX    TMP DP  RH WIND       PRES   REMARKS
MILWAUKEE      PTCLDY    70  52  52 W10       29.79R
WAUKESHA       NOT AVBL
MILWAUKEE/TIMM CLEAR     64  48  55 W8        29.80R
RACINE         CLEAR     68  52  56 NW7       29.81R
KENOSHA        CLEAR     67  54  63 NW10      29.80R
FOND DU LAC    PTCLDY    64  52  64 W7        29.79R
SHEBOYGAN      CLEAR     65  56  72 W9        29.77R
WEST BEND      PTCLDY    64  52  63 W8        29.79R
JUNEAU         CLEAR     64  52  65 CALM      29.82R
$$

LSZ147-162-240400-
LAKE SUPERIOR

STATION/POSITION TIME  TEMP    WIND        PRES    WAVE
                       AIR SEA DIR/SP/G            HT/PER
                 (UTC) (F)     (DEG/KT/KT) (MB)    (FT/S)
W MID LAKE BUOY  0150   53 39  290/  6/  8 1006.5R   1/ 4
DEVILS ISLAND    0200   58     280/ 18/ 20 1007.3R
SAXON HARBOR     0240   66     270/  5/  9 1007.8R
$$

LMZ867-665-643>646-240400-
LAKE MICHIGAN

STATION/POSITION TIME  TEMP    WIND        PRES    WAVE
                       AIR SEA DIR/SP/G            HT/PER
                 (UTC) (F)     (DEG/KT/KT) (MB)    (FT/S)
CHAMBERS ISLAND  0240   65     290/  2/  6 1006.1R
S GREEN BAY BUOY 0230   68     280/ 10/ 12 1006.5R
N MID LAKE BUOY  0150   60 58   30/  4/  6 1005.5R   1/ 3
NORTHPORT PIER   0240   66     300/  7/ 10 1006.1R
KEWAUNEE LAKESHO 0230   66     300/  4/  5 1006.4R
SHEBOYGAN LAKESH 0200   69     280/ 12/ 15 1006.4R
PORT WASHINGTON  0230   69     280/  4/  9 1008.8R
ATWATER BUOY     0109   67 60  310/ 10/ 12 1007.1R
MILWAUKEE LAKESH 0230   70     300/  7/ 10   N/A
S MID LAKE BUOY  0150   67 63  350/  8/ 10 1006.8R   0
KENOSHA   LAKESH 0200   71     310/  9/ 13 1007.5
$$

TC  - TEMPERATURE IN CELSIUS
VSB - VISIBILITY IN STATUTE MILES
WCI - WIND CHILL INDEX
HX  - HEAT INDEX




USA.gov is the U.S. government's official web portal to all federal, state and local government web resources and services.